Rochester, NH

2:02 AM EDT on August 21, 2017 (GMT -0400)
Skyhaven

Weather History for KDAW - June, 2013

Change the Weather History Date:

Thursday, June 13, 2013

  Actual Average (KPSM) Record (KPSM)
Temperature  
Mean Temperature 60 °F -  
Max Temperature 69 °F 70 °F 93 °F (1984)
Min Temperature 51 °F 52 °F 38 °F (1976)
Degree Days  
Heating Degree Days 6    
Growing Degree Days 10 (Base 50)    
Moisture  
Dew Point 53 °F    
Average Humidity 80    
Maximum Humidity 96    
Minimum Humidity 49    
Precipitation  
Precipitation 0.14 in - - ()
Sea Level Pressure  
Sea Level Pressure 29.75 in    
Wind  
Wind Speed 4 mph (SW)    
Max Wind Speed 8 mph    
Max Gust Speed -    
Visibility 8 miles    
Events Rain    
Averages and records for this station are not official NWS values.
T = Trace of Precipitation, MM = Missing Value Source: NWS Daily Summary

Daily Weather History Graph

Daily Weather History Graph

Search for Another Location

Airport or City:

Trip Planner

Search our weather history database for the weather conditions in past years. The results will help you decide how hot, cold, wet, or windy it might be!

Date:

Astronomy

Jun. 13, 2013 Rise Set
Actual Time 5:02 AM EDT 8:24 PM EDT
Civil Twilight 4:27 AM EDT 9:00 PM EDT
Nautical Twilight 3:41 AM EDT 9:46 PM EDT
Astronomical Twilight 2:43 AM EDT 10:44 PM EDT
Moon 9:43 AM EDT (6/13) 11:22 PM EDT (6/13)
Length of Visible Light 16h 32m
Length of Day
15h 21m
Waxing Crescent, 21% of the Moon is Illuminated
Jun 13
Waxing Crescent
Jun 16
First Quarter
Jun 23
Full
Jun 30
Last Quarter
Jul 8
New

Hourly Weather History & Observations

Time (EDT) Temp. Dew Point Humidity Pressure Visibility Wind Dir Wind Speed Gust Speed Precip Events Conditions
12:51 AM 59.0 °F 51.1 °F 75% 29.77 in 10.0 mi NW 8.1 mph - N/A   Mostly Cloudy
1:51 AM 57.0 °F 51.1 °F 81% 29.77 in 10.0 mi NW 5.8 mph - N/A   Mostly Cloudy
2:51 AM 55.9 °F 50.0 °F 80% 29.76 in 10.0 mi WNW 3.5 mph - N/A   Clear
3:51 AM 51.1 °F 48.0 °F 89% 29.76 in 10.0 mi NW 6.9 mph - N/A   Clear
4:51 AM 53.1 °F 48.9 °F 86% 29.76 in 10.0 mi WNW 4.6 mph - N/A   Clear
5:51 AM 55.9 °F 48.9 °F 77% 29.78 in 10.0 mi WNW 5.8 mph - N/A   Clear
6:51 AM 57.0 °F 51.1 °F 81% 29.78 in 10.0 mi NNW 3.5 mph - N/A   Clear
7:51 AM 62.1 °F 52.0 °F 70% 29.79 in 10.0 mi NW 5.8 mph - N/A   Clear
8:51 AM 66.9 °F 51.1 °F 57% 29.78 in 10.0 mi Calm Calm - N/A   Clear
9:51 AM 68.0 °F 48.0 °F 49% 29.77 in 10.0 mi SE 4.6 mph - N/A   Clear
10:51 AM 68.0 °F 48.9 °F 50% 29.78 in 10.0 mi Variable 3.5 mph - N/A   Clear
11:51 AM 68.0 °F 48.9 °F 50% 29.76 in 10.0 mi Calm Calm - N/A   Clear
12:51 PM 66.0 °F 53.1 °F 63% 29.76 in 10.0 mi South 5.8 mph - N/A   Clear
1:51 PM 66.0 °F 52.0 °F 60% 29.75 in 10.0 mi SSE 4.6 mph - N/A   Clear
2:51 PM 63.0 °F 52.0 °F 67% 29.72 in 10.0 mi SSE 3.5 mph - 0.00 in Rain Light Rain
3:51 PM 60.1 °F 55.0 °F 83% 29.73 in 10.0 mi South 3.5 mph - 0.01 in Rain Light Rain
4:49 PM 60.8 °F 57.2 °F 88% 29.74 in 5.0 mi Calm Calm - 0.03 in Rain Light Rain
4:51 PM 60.1 °F 57.0 °F 90% 29.74 in 5.0 mi South 4.6 mph - 0.03 in Rain Light Rain
4:59 PM 59.0 °F 57.2 °F 94% 29.74 in 6.0 mi Calm Calm - 0.00 in Rain Light Rain
5:33 PM 60.8 °F 57.2 °F 88% 29.73 in 4.0 mi SSE 3.5 mph - 0.02 in Rain Light Rain
5:51 PM 59.0 °F 57.0 °F 93% 29.73 in 6.0 mi South 4.6 mph - 0.03 in Rain Light Rain
6:12 PM 59.0 °F 57.2 °F 94% 29.73 in 6.0 mi Calm Calm - 0.01 in Rain Light Rain
6:31 PM 59.0 °F 55.4 °F 88% 29.72 in 7.0 mi Calm Calm - 0.01 in Rain Light Rain
6:51 PM 57.9 °F 55.9 °F 93% 29.73 in 8.0 mi Calm Calm - 0.01 in Rain Light Rain
7:16 PM 57.2 °F 55.4 °F 94% 29.74 in 7.0 mi Variable 4.6 mph - 0.01 in Rain Light Rain
7:51 PM 57.0 °F 54.0 °F 89% 29.74 in 10.0 mi Calm Calm - 0.02 in Rain Light Rain
8:51 PM 55.9 °F 54.0 °F 93% 29.74 in 9.0 mi Calm Calm - 0.01 in Rain Light Rain
9:51 PM 55.9 °F 54.0 °F 93% 29.73 in 9.0 mi Calm Calm - 0.01 in Rain Light Rain
10:51 PM 55.9 °F 54.0 °F 93% 29.73 in 8.0 mi Calm Calm - 0.01 in Rain Light Rain
11:51 PM 55.0 °F 54.0 °F 96% 29.71 in 6.0 mi Calm Calm - 0.01 in Rain Light Rain